Tracking 19720 objects as of 26-Jun-2019
HD Live streaming from Space Station
objects crossing your sky now

ASTRO H DEB

Track ASTRO H DEB now!
10-day predictions


NORAD ID: 42675
Int'l Code: 2016-012T
Perigee: 537.9 km
Apogee: 547.5 km
Inclination: 31.0 °
Period: 95.4 minutes
Semi major axis: 6913 km
RCS: Unknown
Launch date: February 17, 2016
Source: Japan (JPN)
Launch site: TANEGASHIMA SPACE CENTER (TNSTA)

Note: This is SATELLITE DEBRIS
aabbcc
Your satellite tracking list
Your tracking list is empty




NASA's NSSDC Master Catalog

Two Line Element Set (TLE):
1 42675U 16012T   19175.80734859 +.00003178 +00000-0 +18411-3 0  9998
2 42675 031.0122 050.2240 0006962 235.9345 124.0632 15.10198505132348
Source of the keplerian elements: AFSPC